Погода в Красноармейском

Россия / Волгоградская область     51°02′45″N   42°54′29″E
темп.,
°C
ветер,
м/с
пор.,
м/с
влажн.,
%
обл.,
%
осадки,
мм/ч
давл.,
гПа
погр.,
м
30 июня, чт
чт3000:00+13св33690 0.0 101829
03:00+12с22760 0.0 101818
06:00+14ссв24730 0.0 1017124
09:00+19с33550 0.0 1017960
12:00+22ссз354529 0.0 10162156
15:00+23с564496 0.0 10142060
18:00+21сз2454100 0.0 1014151
21:00+17ссз116444 0.0 101311
1 июля, пт
пт100:00+17сз346394 0.0 101393
03:00+13зсз367853 0.0 101284
06:00+14сз5128636 0.8 1011456
09:00+18с910637 1.0 10111008
12:00+17с8114649 0.0 10122428
15:00+17с101141100 0.0 10132590
18:00+13с79675 0.2 10141213
21:00+10ссз512805 0.3 1015386
2 июля, сб
сб200:00+9ссз6138247 0.0 1014479
03:00+11ссз9178798 0.8 1012858
06:00+12с9158896 0.0 1013834
09:00+17с10136750 0.0 10131187
12:00+21с11145156 0.3 10132083
15:00+21с91253100 0.4 10132219
18:00+20с813575 0.0 10131816
21:00+15ссз412715 0.0 1014275
3 июля, вс
вс300:00+13ссз410805 0.0 1014163
03:00+13ссз4884100 0.0 1014139
06:00+16ссз257578 0.0 1014150
09:00+20сз455958 0.0 1014574
12:00+24ссз464931 0.0 10131770
15:00+25ссз574679 0.0 10122470
18:00+24ссв35565 0.0 1013976
21:00+19сз227697 0.3 101439
4 июля, пн
пн400:00+18сз2275100 0.0 101432
03:00+17ссз35838 0.0 1014123
06:00+17ссв48855 0.0 1014262
09:00+21ссв676469 0.0 1015970
12:00+23ссв565399 0.1 10151839
15:00+22ссв365786 0.1 1016567
18:00+23ссв584911 0.0 1016741
21:00+17ссв466944 0.0 101795